Weather History for Grand Junction, CO

Change the Weather History Date:

Thursday, November 14, 2013

  Actual Average Record
Temperature  
Mean Temperature 43 °F 40 °F  
Max Temperature 56 °F 51 °F 72 °F (1903)
Min Temperature 29 °F 28 °F 8 °F (1916)
Degree Days  
Heating Degree Days 22 25  
Month to date heating degree days 328 308  
Since 1 July heating degree days 898 756  
Cooling Degree Days 0 0  
Month to date cooling degree days 0 0  
Year to date cooling degree days 1269 1125  
Moisture  
Dew Point 26 °F    
Average Humidity 52    
Maximum Humidity 78    
Minimum Humidity 26    
Precipitation  
Precipitation 0.00 in 0.02 in 0.53 in (1987)
Month to date precipitation 0.02 0.37  
Year to date precipitation 10.44 8.47  
Snow  
Snow 0.00 in 0.00 in 0.70 in (1957)
Month to date snowfall 0.2 0.6  
Since 1 July snowfall 0.3 1.0  
Since 1 September snowfall 0.3 1.0  
Snow Depth 0.00 in    
Sea Level Pressure  
Sea Level Pressure 30.02 in    
Wind  
Wind Speed 4 mph (ESE)    
Max Wind Speed 16 mph    
Max Gust Speed 18 mph    
Visibility 10 miles    
Events Snow    
T = Trace of Precipitation, MM = Missing Value Source: NWS Daily Summary

Daily Weather History Graph

Daily Weather History Graph

Search for Another Location

Airport:

Trip Planner

Search our weather history database for the weather conditions in past years. The results will help you decide how hot, cold, wet, or windy it might be!

Date:

Astronomy

Nov. 14, 2013 Rise Set
Actual Time 6:56 AM MST 5:00 PM MST
Civil Twilight 6:28 AM MST 5:28 PM MST
Nautical Twilight 5:55 AM MST 6:01 PM MST
Astronomical Twilight 5:24 AM MST 6:32 PM MST
Moon 3:22 PM MST (11/14) 3:56 AM MST (11/14)
Length of Visible Light 11h 00m
Length of Day
10h 03m
Waxing Gibbous, 92% of the Moon is Illuminated
Nov 14
Waxing Gibbous
Nov 17
Full
Nov 25
Last Quarter
Dec 2
New
Dec 9
First Quarter

Hourly Weather History & Observations

Time (MST) Temp. Windchill Dew Point Humidity Pressure Visibility Wind Dir Wind Speed Gust Speed Precip Events Conditions
12:53 AM 37.0 °F - 30.0 °F 76% 30.12 in 10.0 mi Calm Calm - N/A   Overcast
1:53 AM 37.9 °F - 28.9 °F 70% 30.12 in 10.0 mi Calm Calm - N/A   Mostly Cloudy
2:53 AM 37.0 °F - 30.0 °F 76% 30.12 in 10.0 mi Calm Calm - N/A   Mostly Cloudy
3:53 AM 35.1 °F 32.2 °F 28.0 °F 76% 30.13 in 10.0 mi NE 3.5 mph - N/A   Mostly Cloudy
4:53 AM 32.0 °F - 27.0 °F 82% 30.16 in 10.0 mi Calm Calm - N/A   Mostly Cloudy
5:53 AM 32.0 °F - 26.1 °F 79% 30.17 in 10.0 mi Calm Calm - N/A   Clear
6:53 AM 30.0 °F - 24.1 °F 79% 30.18 in 10.0 mi Calm Calm - N/A   Clear
7:53 AM 37.0 °F - 28.0 °F 70% 30.17 in 10.0 mi Calm Calm - N/A   Clear
8:53 AM 41.0 °F 37.1 °F 28.0 °F 60% 30.17 in 10.0 mi SE 5.8 mph - N/A   Clear
9:53 AM 45.0 °F 42.6 °F 28.0 °F 52% 30.15 in 10.0 mi SSE 4.6 mph - N/A   Clear
10:53 AM 48.9 °F - 28.9 °F 46% 30.13 in 10.0 mi Calm Calm - N/A   Clear
11:53 AM 52.0 °F - 28.9 °F 41% 30.07 in 10.0 mi South 5.8 mph - N/A   Clear
12:53 PM 55.0 °F - 28.0 °F 35% 30.02 in 10.0 mi Calm Calm - N/A   Clear
1:53 PM 55.9 °F - 24.1 °F 29% 29.97 in 10.0 mi Variable 3.5 mph - N/A   Clear
2:53 PM 55.9 °F - 21.9 °F 27% 29.94 in 10.0 mi East 3.5 mph - N/A   Clear
3:53 PM 55.0 °F - 21.9 °F 28% 29.93 in 10.0 mi NW 4.6 mph - N/A   Clear
4:53 PM 50.0 °F - 24.1 °F 36% 29.94 in 10.0 mi NNW 5.8 mph - N/A   Clear
5:53 PM 41.0 °F - 24.1 °F 51% 29.95 in 10.0 mi Calm Calm - N/A   Clear
6:53 PM 41.0 °F 36.4 °F 24.1 °F 51% 29.94 in 10.0 mi SE 6.9 mph - N/A   Clear
7:53 PM 39.0 °F 35.7 °F 23.0 °F 53% 29.90 in 10.0 mi East 4.6 mph - N/A   Clear
8:53 PM 41.0 °F 33.9 °F 23.0 °F 49% 29.84 in 10.0 mi East 12.7 mph - N/A   Clear
9:53 PM 37.9 °F 30.9 °F 23.0 °F 55% 29.81 in 9.0 mi East 10.4 mph - 0.00 in Snow Light Snow
10:53 PM 37.9 °F 30.5 °F 24.1 °F 57% 29.81 in 10.0 mi East 11.5 mph - 0.00 in Snow Light Snow
11:53 PM 39.0 °F 31.8 °F 23.0 °F 53% 29.78 in 9.0 mi ESE 11.5 mph - 0.00 in   Unknown